星链-34468 (STARLINK-34468)

导读

STARLINK-34468是美国SpaceX星链星座的一颗卫星,于2025年6月17日发射升空,归属太空探索技术公司(SpaceX)的Starlink项目。该项目以构建全球卫星互联网通信网络为目标,这颗卫星承担为地面用户提供低延迟、高速率宽带网络服务的任务,是星链大规模组网进程中补充的空间节点,进一步拓展了星座覆盖能力。

Basic Information
目录编号:
64424
目录名称:
STARLINK-34468
国际标识:
2025-129N
轨道中心:
EARTH
卫星名称:
星链-34468
卫星全名:
星链-34468 (STARLINK-34468)
卫星状态:
在轨 (已飞行361 天)
发射日期:
2025-06-17 UTC
国别 :
美国 (US)
星等 :
--
Orbit Information
数据来源 国际轨道数据 AOE轨道数据
星历时间 2026-06-13T19:59:28+0800
11小时前
查看轨道信息
2026-06-13T02:00:00+0800
1天前
查看轨道信息
半长轴 6950.18km 6950.102km
偏心率 0.0003966 0.000509
轨道倾角 70.000° 69.991°
近地点辐角 266.169° 258.826°
升交点赤经 193.086° 194.972°
平近点角 93.901° 18.968°
近地点 569.286km 568.427km
远地点 574.8km 575.503km
周期 96.107分钟 96.105分钟
每日圈数 14.983342 14.983597
Detailed Information
固有亮度:
5
最大亮度:
2.5
卫星平台:
Starlink V1.0
覆盖范围:
全球
运营商:
太空探索技术公司
运营商所在国:
美国
制造商(研发单位):
太空探索技术公司
制造商所在国:
美国
使用方式:
暂无
Satellite Introduction
Starlink 计划是 SpaceX 推出的全球卫星互联网项目,通过发射低轨道卫星,为全球尤其是偏远地区提供高速、低延迟的互联网服务。自 2019 年起,Starlink 已部署数千颗卫星,旨在缩小全球数字鸿沟,推动互联网普及。该项目还为军事、航空等行业提供通信支持,带来广泛经济效益。
2D Orbit Map
3D Orbit Map
Orbit Altitude Analysis Chart
Orbit Inclination Analysis Chart
Orbit Comprehensive Analysis Chart
View Comprehensive Chart